N2235 KDEN-KFNL

Flight info

Callsign N2235
Flight time 0h 22m
Altitude 8500
Route VFR FLIGHT
Aircraft C172/L-SDFGPRY/C

Departure

Time 2026-04-30 22:03
Airport Denver International Airport (KDEN)

Arrival

Time 2026-04-30 22:25
Airport Northern Colorado Regional Airport (KFNL)
Time Latitude Longitude Altitude Speed Heading
2026-04-30 21:43 39.86217 -104.68279 5387 ft 0 kts 270°
2026-04-30 21:51 39.86218 -104.68284 5387 ft 2 kts 312°
2026-04-30 21:51 39.86218 -104.68218 5385 ft 16 kts 108°
2026-04-30 21:51 39.86159 -104.68041 5377 ft 25 kts 97°
2026-04-30 21:52 39.86133 -104.67802 5375 ft 29 kts 90°
2026-04-30 21:52 39.86133 -104.67550 5371 ft 26 kts 89°
2026-04-30 21:52 39.86132 -104.67351 5372 ft 18 kts 92°
2026-04-30 21:52 39.86128 -104.67213 5372 ft 13 kts 89°
2026-04-30 21:53 39.86129 -104.67119 5372 ft 8 kts 91°
2026-04-30 21:53 39.86131 -104.67061 5373 ft 5 kts 61°
2026-04-30 21:53 39.86134 -104.67034 5373 ft 2 kts 104°
2026-04-30 21:53 39.86130 -104.67007 5373 ft 5 kts 93°
2026-04-30 21:54 39.86129 -104.66931 5374 ft 11 kts 90°
2026-04-30 21:54 39.86128 -104.66808 5375 ft 16 kts 90°
2026-04-30 21:54 39.86127 -104.66645 5378 ft 20 kts 90°
2026-04-30 21:54 39.86107 -104.66484 5385 ft 14 kts 95°
2026-04-30 21:55 39.86107 -104.66402 5388 ft 5 kts 90°
2026-04-30 21:55 39.86107 -104.66386 5389 ft 0 kts 90°
2026-04-30 21:55 39.86106 -104.66341 5390 ft 11 kts 90°
2026-04-30 21:55 39.86106 -104.66183 5391 ft 24 kts 90°
2026-04-30 21:56 39.86108 -104.66096 5390 ft 3 kts 51°
2026-04-30 21:56 39.86117 -104.66185 5390 ft 18 kts 271°
2026-04-30 21:56 39.86216 -104.66231 5390 ft 14 kts 358°
2026-04-30 21:56 39.86323 -104.66229 5389 ft 17 kts 359°
2026-04-30 21:57 39.86451 -104.66226 5388 ft 19 kts
2026-04-30 21:57 39.86582 -104.66225 5385 ft 15 kts 359°
2026-04-30 21:57 39.86670 -104.66224 5382 ft 13 kts
2026-04-30 21:57 39.86758 -104.66223 5378 ft 15 kts
2026-04-30 21:58 39.86887 -104.66222 5371 ft 22 kts
2026-04-30 21:58 39.87034 -104.66220 5370 ft 17 kts
2026-04-30 21:58 39.87158 -104.66215 5371 ft 18 kts 359°
2026-04-30 21:58 39.87283 -104.66216 5377 ft 17 kts
2026-04-30 21:59 39.87398 -104.66214 5383 ft 16 kts
2026-04-30 21:59 39.87503 -104.66211 5387 ft 13 kts 356°
2026-04-30 21:59 39.87522 -104.66212 5387 ft 0 kts 355°
2026-04-30 22:00 39.87551 -104.66213 5388 ft 10 kts
2026-04-30 22:00 39.87655 -104.66213 5388 ft 0 kts 357°
2026-04-30 22:01 39.87656 -104.66213 5388 ft 1 kts 358°
2026-04-30 22:02 39.87720 -104.66207 5388 ft 16 kts 12°
2026-04-30 22:02 39.87756 -104.66018 5385 ft 36 kts 91°
2026-04-30 22:02 39.87755 -104.65536 5400 ft 64 kts 90°
2026-04-30 22:02 39.87810 -104.64938 5493 ft 71 kts 89°
2026-04-30 22:03 39.87871 -104.64275 5628 ft 74 kts 84°
2026-04-30 22:03 39.87983 -104.63603 5788 ft 76 kts 79°
2026-04-30 22:03 39.88099 -104.62903 5932 ft 79 kts 76°
2026-04-30 22:03 39.88311 -104.62257 6124 ft 77 kts 43°
2026-04-30 22:04 39.88832 -104.62351 6273 ft 90 kts 323°
2026-04-30 22:04 39.89292 -104.63018 6300 ft 106 kts 319°
2026-04-30 22:04 39.90113 -104.64470 6683 ft 102 kts 313°
2026-04-30 22:05 39.90558 -104.65240 6765 ft 107 kts 310°
2026-04-30 22:05 39.90914 -104.66077 6895 ft 109 kts 303°
2026-04-30 22:05 39.91393 -104.66909 6864 ft 118 kts 316°
2026-04-30 22:05 39.91903 -104.67816 6754 ft 133 kts 306°
2026-04-30 22:06 39.92379 -104.68835 6792 ft 128 kts 309°
2026-04-30 22:06 39.93783 -104.69933 6861 ft 117 kts 343°
2026-04-30 22:06 39.94255 -104.70202 7006 ft 106 kts 343°
2026-04-30 22:07 39.94886 -104.70577 7212 ft 94 kts 342°
2026-04-30 22:07 39.95437 -104.70910 7417 ft 80 kts 345°
2026-04-30 22:07 39.95954 -104.71220 7501 ft 84 kts 345°
2026-04-30 22:07 39.96498 -104.71546 7588 ft 88 kts 341°
2026-04-30 22:08 39.97058 -104.71886 7663 ft 90 kts 342°
2026-04-30 22:08 39.97623 -104.72227 7737 ft 92 kts 341°
2026-04-30 22:08 39.98205 -104.72580 7823 ft 92 kts 339°
2026-04-30 22:08 39.98786 -104.72934 7894 ft 93 kts 339°
2026-04-30 22:09 39.99376 -104.73292 7971 ft 94 kts 342°
2026-04-30 22:09 39.99964 -104.73652 8044 ft 93 kts 339°
2026-04-30 22:09 40.00542 -104.74006 8117 ft 93 kts 343°
2026-04-30 22:09 40.01124 -104.74362 8190 ft 92 kts 342°
2026-04-30 22:10 40.01702 -104.74715 8264 ft 91 kts 343°
2026-04-30 22:10 40.02277 -104.75065 8338 ft 91 kts 340°
2026-04-30 22:10 40.02849 -104.75413 8409 ft 90 kts 343°
2026-04-30 22:10 40.03412 -104.75757 8480 ft 89 kts 340°
2026-04-30 22:11 40.04519 -104.76433 8621 ft 86 kts 340°
2026-04-30 22:11 40.05049 -104.76758 8683 ft 84 kts 340°
2026-04-30 22:11 40.05566 -104.77074 8760 ft 81 kts 342°
2026-04-30 22:12 40.06089 -104.77391 8766 ft 85 kts 341°
2026-04-30 22:12 40.06640 -104.77727 8774 ft 91 kts 343°
2026-04-30 22:12 40.07242 -104.78091 8749 ft 99 kts 339°
2026-04-30 22:12 40.07881 -104.78479 8691 ft 105 kts 342°
2026-04-30 22:13 40.08562 -104.78893 8652 ft 110 kts 341°
2026-04-30 22:13 40.09267 -104.79326 8613 ft 113 kts 339°
2026-04-30 22:13 40.09992 -104.79765 8562 ft 115 kts 341°
2026-04-30 22:13 40.10722 -104.80213 8516 ft 117 kts 339°
2026-04-30 22:14 40.11456 -104.80665 8470 ft 117 kts 339°
2026-04-30 22:14 40.12193 -104.81115 8420 ft 117 kts 341°
2026-04-30 22:14 40.12933 -104.81569 8373 ft 118 kts 341°
2026-04-30 22:14 40.13681 -104.82026 8325 ft 119 kts 340°
2026-04-30 22:15 40.14436 -104.82489 8274 ft 120 kts 339°
2026-04-30 22:15 40.15181 -104.82947 8220 ft 120 kts 340°
2026-04-30 22:15 40.15948 -104.83419 8113 ft 124 kts 339°
2026-04-30 22:15 40.16740 -104.83901 7993 ft 127 kts 341°
2026-04-30 22:16 40.17546 -104.84391 7872 ft 128 kts 337°
2026-04-30 22:16 40.18360 -104.84892 7753 ft 129 kts 338°
2026-04-30 22:17 40.20804 -104.86391 7384 ft 130 kts 337°
2026-04-30 22:17 40.21626 -104.86897 7266 ft 131 kts 337°
2026-04-30 22:17 40.23286 -104.87916 7021 ft 132 kts 339°
2026-04-30 22:18 40.24124 -104.88430 6903 ft 133 kts 340°
2026-04-30 22:18 40.25813 -104.89469 6671 ft 132 kts 339°
2026-04-30 22:19 40.27332 -104.90408 6660 ft 113 kts 338°
2026-04-30 22:19 40.28026 -104.90833 6656 ft 108 kts 339°
2026-04-30 22:19 40.29345 -104.91650 6666 ft 102 kts 339°
2026-04-30 22:20 40.29986 -104.92042 6673 ft 102 kts 341°
2026-04-30 22:20 40.31269 -104.92831 6669 ft 104 kts 338°
2026-04-30 22:20 40.31926 -104.93237 6660 ft 105 kts 337°
2026-04-30 22:21 40.32591 -104.93645 6659 ft 106 kts 338°
2026-04-30 22:21 40.33259 -104.94053 6658 ft 106 kts 339°
2026-04-30 22:21 40.33911 -104.94531 6599 ft 107 kts 330°
2026-04-30 22:21 40.34539 -104.95084 6516 ft 109 kts 327°
2026-04-30 22:22 40.35131 -104.95687 6485 ft 107 kts 326°
2026-04-30 22:22 40.35723 -104.96259 6492 ft 105 kts 328°
2026-04-30 22:22 40.36335 -104.96803 6468 ft 108 kts 333°
2026-04-30 22:22 40.36994 -104.97331 6427 ft 111 kts 336°
2026-04-30 22:23 40.37697 -104.97782 6390 ft 113 kts 341°
2026-04-30 22:23 40.38447 -104.98152 6282 ft 118 kts 346°
2026-04-30 22:23 40.39231 -104.98495 6151 ft 119 kts 342°
2026-04-30 22:23 40.40012 -104.98880 5971 ft 120 kts 346°
2026-04-30 22:24 40.40775 -104.99214 5817 ft 111 kts 347°
2026-04-30 22:24 40.41486 -104.99542 5681 ft 108 kts 339°
2026-04-30 22:24 40.42187 -104.99872 5523 ft 105 kts 343°
2026-04-30 22:24 40.42861 -105.00175 5318 ft 102 kts 343°
2026-04-30 22:25 40.43516 -105.00483 5158 ft 99 kts 342°
2026-04-30 22:25 40.44145 -105.00773 5025 ft 90 kts 342°
2026-04-30 22:25 40.44672 -105.01008 5001 ft 70 kts 340°
2026-04-30 22:25 40.45039 -105.01189 4998 ft 32 kts 338°
2026-04-30 22:26 40.45047 -105.01169 4998 ft 7 kts 137°
2026-04-30 22:26 40.45025 -105.01137 4998 ft 3 kts 131°
2026-04-30 22:26 40.45017 -105.01125 4998 ft 5 kts 132°
2026-04-30 22:27 40.44968 -105.01051 5000 ft 15 kts 131°
2026-04-30 22:27 40.44937 -105.00947 5000 ft 11 kts 73°
2026-04-30 22:27 40.44900 -105.00842 5000 ft 5 kts 161°
2026-04-30 22:28 40.44857 -105.00821 5000 ft 5 kts 160°
2026-04-30 22:28 40.44816 -105.00803 5000 ft 5 kts 161°
2026-04-30 22:29 40.44804 -105.00785 5000 ft 0 kts 86°